Dayton, OR

8:30 PM PST on February 10, 2016 (GMT -0800)
McMinnville Municipal

Weather History for KMMV - December, 2013

Change the Weather History Date:

Tuesday, December 3, 2013

  Actual Average Record
Temperature  
Mean Temperature 36 °F 41 °F  
Max Temperature 45 °F 47 °F 66 °F (1918)
Min Temperature 26 °F 36 °F 17 °F (1969)
Degree Days  
Heating Degree Days 29 24  
Month to date heating degree days 65 70  
Since 1 July heating degree days 1193 1292  
Cooling Degree Days 0 0  
Month to date cooling degree days 0 0  
Year to date cooling degree days 405 215  
Moisture  
Dew Point 30 °F    
Average Humidity 72    
Maximum Humidity 100    
Minimum Humidity 43    
Precipitation  
Precipitation 0.00 in 0.20 in 2.02 in (1987)
Month to date precipitation 0.97 0.58  
Year to date precipitation 21.86 34.23  
Snow  
Snow 0.00 in - - ()
Month to date snowfall 0.0  
Snow Depth 0.00 in    
Sea Level Pressure  
Sea Level Pressure 30.16 in    
Wind  
Wind Speed 6 mph (NNE)    
Max Wind Speed 21 mph    
Max Gust Speed 28 mph    
Visibility 6 miles    
Events Fog    
T = Trace of Precipitation, MM = Missing Value Source: NWS Daily Summary

Daily Weather History Graph

Daily Weather History Graph

Search for Another Location

Airport or City:

Trip Planner

Search our weather history database for the weather conditions in past years. The results will help you decide how hot, cold, wet, or windy it might be!

Date:

Astronomy

Dec. 03, 2013 Rise Set
Actual Time 7:33 AM PST 4:31 PM PST
Civil Twilight 7:00 AM PST 5:04 PM PST
Nautical Twilight 6:23 AM PST 5:41 PM PST
Astronomical Twilight 5:47 AM PST 6:16 PM PST
Moon 8:07 AM PST (12/3) 5:41 PM PST (12/3)
Length of Visible Light 10h 04m
Length of Day
8h 57m
New Moon, 1% of the Moon is Illuminated
Dec 3
New Moon
Dec 9
First Quarter
Dec 17
Full
Dec 25
Last Quarter
Jan 1
New

Hourly Weather History & Observations

Time (PST) Temp. Windchill Dew Point Humidity Pressure Visibility Wind Dir Wind Speed Gust Speed Precip Events Conditions
12:39 AM 32.0 °F - 30.2 °F 93% 30.07 in 3.0 mi Calm Calm - N/A   Scattered Clouds
12:41 AM 30.2 °F 26.7 °F 30.2 °F 100% 30.07 in 1.8 mi North 3.5 mph - N/A   Scattered Clouds
12:51 AM 30.2 °F - 30.2 °F 100% 30.07 in 3.0 mi Calm Calm - N/A   Partly Cloudy
12:53 AM 30.0 °F - 30.0 °F 100% 30.08 in 6.0 mi Calm Calm - N/A   Partly Cloudy
1:03 AM 30.2 °F - 30.2 °F 100% 30.08 in 1.8 mi Calm Calm - N/A   Scattered Clouds
1:20 AM 30.2 °F - 30.2 °F 100% 30.08 in 3.0 mi Calm Calm - N/A   Scattered Clouds
1:53 AM 30.9 °F - 30.9 °F 100% 30.09 in 4.0 mi Calm Calm - N/A   Overcast
2:53 AM 30.9 °F - 30.9 °F 100% 30.09 in 8.0 mi Calm Calm - N/A   Overcast
3:30 AM 32.0 °F 28.7 °F 32.0 °F 100% 30.08 in 7.0 mi NNW 3.5 mph - N/A   Overcast
3:53 AM 30.9 °F - 30.9 °F 100% 30.09 in 6.0 mi Calm Calm - N/A   Mostly Cloudy
4:03 AM 30.2 °F - 30.2 °F 100% 30.09 in 8.0 mi Calm Calm - N/A   Mostly Cloudy
4:53 AM 32.0 °F 28.7 °F 32.0 °F 100% 30.10 in 9.0 mi NW 3.5 mph - N/A   Overcast
5:07 AM 32.0 °F 28.7 °F 32.0 °F 100% 30.10 in 4.0 mi North 3.5 mph - N/A   Overcast
5:16 AM 33.8 °F 29.6 °F 32.0 °F 93% 30.10 in 2.0 mi North 4.6 mph - N/A   Overcast
5:28 AM 33.8 °F 29.6 °F 32.0 °F 93% 30.10 in 4.0 mi North 4.6 mph - N/A   Overcast
5:53 AM 33.1 °F 27.7 °F 32.0 °F 96% 30.12 in 4.0 mi North 5.8 mph - N/A   Overcast
6:31 AM 33.8 °F 30.8 °F 33.8 °F 100% 30.12 in 1.8 mi NNW 3.5 mph - N/A   Overcast
6:44 AM 33.8 °F 29.6 °F 33.8 °F 100% 30.13 in 0.8 mi NNW 4.6 mph - N/A   Mist
6:53 AM 33.1 °F 27.7 °F 33.1 °F 100% 30.14 in 0.8 mi North 5.8 mph - N/A   Mist
7:07 AM 33.8 °F 29.6 °F 33.8 °F 100% 30.14 in 1.2 mi North 4.6 mph - N/A   Overcast
7:15 AM 33.8 °F 30.8 °F 33.8 °F 100% 30.14 in 3.0 mi North 3.5 mph - N/A   Overcast
7:53 AM 34.0 °F 28.8 °F 33.1 °F 96% 30.15 in 4.0 mi North 5.8 mph - N/A   Overcast
8:29 AM 33.8 °F 30.8 °F 33.8 °F 100% 30.16 in 2.5 mi ENE 3.5 mph - N/A   Overcast
8:37 AM 33.8 °F 30.8 °F 33.8 °F 100% 30.16 in 0.8 mi East 3.5 mph - N/A   Overcast
8:46 AM 33.8 °F 30.8 °F 33.8 °F 100% 30.16 in 0.2 mi East 3.5 mph - N/A Fog Fog
8:53 AM 33.1 °F - 33.1 °F 100% 30.17 in 0.2 mi Calm Calm - N/A Fog Fog
9:09 AM 33.8 °F 30.8 °F 33.8 °F 100% 30.17 in 1.0 mi ENE 3.5 mph - N/A   Overcast
9:13 AM 33.8 °F - 33.8 °F 100% 30.17 in 3.0 mi Calm Calm - N/A   Overcast
9:29 AM 33.8 °F - 33.8 °F 100% 30.17 in 4.0 mi Calm Calm - N/A   Overcast
9:53 AM 35.1 °F - 35.1 °F 100% 30.18 in 5.0 mi Calm Calm - N/A   Overcast
9:58 AM 33.8 °F - 33.8 °F 100% 30.18 in 5.0 mi Calm Calm - N/A   Overcast
10:53 AM 37.9 °F 33.5 °F 36.0 °F 93% 30.18 in 10.0 mi North 5.8 mph - N/A   Partly Cloudy
11:32 AM 39.2 °F 32.5 °F 35.6 °F 87% 30.18 in 10.0 mi North 10.4 mph - N/A   Mostly Cloudy
11:53 AM 39.9 °F 32.1 °F 34.0 °F 79% 30.19 in 10.0 mi North 13.8 mph - N/A   Mostly Cloudy
12:05 PM 42.8 °F 37.5 °F 33.8 °F 70% 30.18 in 10.0 mi North 9.2 mph - N/A   Scattered Clouds
12:53 PM 44.1 °F 38.6 °F 33.1 °F 65% 30.18 in 10.0 mi North 10.4 mph - N/A   Clear
1:53 PM 41.0 °F 33.1 °F 25.0 °F 53% 30.18 in 10.0 mi NE 15.0 mph - N/A   Scattered Clouds
2:53 PM 43.0 °F 36.4 °F 21.0 °F 42% 30.20 in 10.0 mi ENE 12.7 mph 21.9 mph N/A   Clear
3:53 PM 39.9 °F 32.9 °F 21.0 °F 47% 30.22 in 10.0 mi ENE 11.5 mph - N/A   Clear
4:53 PM 36.0 °F 28.5 °F 19.9 °F 52% 30.23 in 10.0 mi NE 10.4 mph - N/A   Clear
5:53 PM 35.1 °F 28.6 °F 19.0 °F 52% 30.25 in 10.0 mi NE 8.1 mph - N/A   Clear
6:53 PM 33.1 °F 27.7 °F 19.0 °F 56% 30.25 in 10.0 mi NNE 5.8 mph - N/A   Clear
7:53 PM 32.0 °F 24.8 °F 19.9 °F 61% 30.26 in 10.0 mi NE 8.1 mph - N/A   Clear
8:53 PM 30.9 °F 24.3 °F 18.0 °F 59% 30.27 in 10.0 mi NNE 6.9 mph - N/A   Clear
9:53 PM 30.9 °F 24.3 °F 19.9 °F 64% 30.28 in 10.0 mi North 6.9 mph - N/A   Clear
10:53 PM 30.0 °F 23.2 °F 21.9 °F 72% 30.30 in 10.0 mi North 6.9 mph - N/A   Clear
11:53 PM 27.0 °F 23.0 °F 21.9 °F 81% 30.30 in 10.0 mi North 3.5 mph - N/A   Clear